GW5346 Weather Reports


time (UTC)temp
C
wind
direction
speed
KPH
gust
KPH
rain 1hr
cm
rain 24hr
cm
rain mn
cm
humidity
%
barometer
mb
20260505124548 3 346 8.0 14.5 0.00 0.00 0.00 63 1019.1
20260505123102 3 334 11.3 17.7 0.00 0.00 0.00 63 1018.8
20260505121549 3 325 9.7 17.7 0.00 0.00 0.00 62 1018.7
20260505120046 3 345 12.9 17.7 0.00 0.00 0.00 61 1018.8
20260505114558 3 352 12.9 19.3 0.00 0.00 0.00 59 1018.8
20260505113058 3 5 16.1 19.3 0.00 0.00 0.00 58 1018.6
20260505111557 4 5 12.9 17.7 0.00 0.00 0.00 57 1018.7
20260505101545 5 330 11.3 19.3 0.00 0.00 0.00 55 1018.4
20260505100052 5 302 8.0 17.7 0.00 0.00 0.00 55 1018.3
20260505094553 5 298 14.5 19.3 0.00 0.00 0.00 54 1018.1
20260505093052 4 306 12.9 16.1 0.00 0.00 0.00 53 1017.9
20260505091556 4 268 6.4 12.9 0.00 0.00 0.00 52 1017.8
20260505090056 3 281 4.8 9.7 0.00 0.00 0.00 52 1017.8
20260505084551 3 277 3.2 9.7 0.00 0.00 0.00 51 1017.8
20260505083054 3 281 3.2 6.4 0.00 0.00 0.00 51 1017.8
20260505081556 3 282 3.2 6.4 0.00 0.00 0.00 51 1017.8
20260505080050 3 290 1.6 6.4 0.00 0.00 0.00 51 1017.7
20260505074606 3 352 1.6 4.8 0.00 0.00 0.00 51 1017.9
20260505073051 3 352 1.6 3.2 0.00 0.00 0.00 51 1018.2
20260505071551 4 352 1.6 4.8 0.00 0.00 0.00 49 1018.0
20260505070046 4 352 3.2 8.0 0.00 0.00 0.00 50 1018.1
20260505064545 4 73 4.8 6.4 0.00 0.00 0.00 49 1018.1
20260505063056 4 77 1.6 3.2 0.00 0.00 0.00 50 1017.8
20260505061615 4 77 1.6 4.8 0.00 0.00 0.00 47 1017.6
20260505060053 5 77 3.2 8.0 0.00 0.00 0.00 47 1017.3
20260505054602 5 88 4.8 9.7 0.00 0.00 0.00 47 1017.3
20260505053045 5 99 4.8 11.3 0.00 0.00 0.00 47 1017.3
20260505051610 5 139 6.4 8.0 0.00 0.00 0.00 47 1017.1
20260505041551 5 61 8.0 12.9 0.00 0.00 0.00 45 1017.2
20260505040050 5 65 6.4 12.9 0.00 0.00 0.00 42 1017.1
20260505034549 6 30 12.9 19.3 0.00 0.00 0.00 42 1016.9
20260505033053 6 30 16.1 22.5 0.00 0.00 0.00 41 1016.6
20260505031546 7 28 20.9 30.6 0.00 0.00 0.00 39 1016.4
20260505030056 7 21 17.7 29.0 0.00 0.00 0.00 34 1016.1
20260505024606 8 15 17.7 25.7 0.00 0.00 0.00 31 1015.8
20260505023051 9 9 22.5 29.0 0.00 0.00 0.00 28 1015.6
20260505021608 10 5 22.5 30.6 0.00 0.00 0.00 26 1015.5
20260505020051 11 5 24.1 35.4 0.00 0.00 0.00 24 1015.2
20260505014554 11 5 24.1 38.6 0.00 0.00 0.00 22 1015.1
20260505013051 12 348 27.4 38.6 0.00 0.00 0.00 22 1015.0
20260505011556 12 317 22.5 38.6 0.00 0.00 0.00 22 1015.0
20260505010051 12 331 25.7 37.0 0.00 0.00 0.00 22 1015.0
20260505004550 12 334 24.1 38.6 0.00 0.00 0.00 23 1015.2
20260505003047 12 325 29.0 41.8 0.00 0.00 0.00 22 1015.1
20260505001548 13 323 32.2 41.8 0.00 0.00 0.00 23 1015.1
20260505000049 12 331 25.7 45.1 0.00 0.00 0.00 23 1015.1
20260504234550 13 5 29.0 45.1 0.00 0.00 0.00 24 1015.1
20260504233101 12 299 20.9 38.6 0.00 0.00 0.00 26 1015.2
20260504231605 12 330 33.8 45.1 0.00 0.00 0.00 28 1015.2
20260504230058 12 340 33.8 49.9 0.00 0.00 0.00 28 1015.3
20260504224555 12 327 25.7 37.0 0.00 0.00 0.00 30 1015.3
20260504223103 12 344 25.7 35.4 0.00 0.00 0.00 30 1015.2
20260504221606 12 15 20.9 32.2 0.00 0.00 0.00 31 1015.3
20260504220135 12 306 32.2 49.9 0.00 0.00 0.00 31 1015.5
20260504214555 12 331 25.7 53.1 0.00 0.00 0.00 31 1015.4
20260504213123 13 331 27.4 41.8 0.00 0.00 0.00 30 1015.4
20260504211551 13 344 27.4 53.1 0.00 0.00 0.00 30 1015.4
20260504210047 12 323 32.2 54.7 0.00 0.00 0.00 30 1015.3
20260504204559 12 340 27.4 45.1 0.00 0.00 0.00 29 1015.6
20260504203052 12 323 24.1 51.5 0.00 0.00 0.00 30 1015.3
20260504201551 12 320 19.3 48.3 0.00 0.00 0.00 30 1015.4
20260504194552 13 323 29.0 49.9 0.00 0.00 0.00 30 1015.3
20260504193044 13 317 20.9 41.8 0.00 0.00 0.00 31 1015.5
20260504191550 12 298 20.9 41.8 0.00 0.00 0.00 32 1015.4
20260504190048 13 360 24.1 46.7 0.00 0.00 0.00 31 1015.4
20260504184550 13 326 20.9 53.1 0.00 0.00 0.00 33 1015.5
20260504183054 13 326 29.0 49.9 0.00 0.00 0.00 31 1015.6
20260504181553 13 336 19.3 49.9 0.00 0.00 0.00 33 1015.6
20260504180053 12 340 32.2 43.5 0.00 0.00 0.00 35 1015.6
20260504174549 12 303 20.9 35.4 0.00 0.00 0.00 36 1015.6
20260504173046 12 325 19.3 33.8 0.00 0.00 0.00 36 1015.6
20260504171556 12 300 17.7 30.6 0.00 0.00 0.00 40 1015.6